Location: Arlington
(40.6323°N, 74.1651°W)
Time: 03:15:08
(UTC+00:00)

PSLV R/B - Pass Details

Date: 22 November 2019
Orbit: 568 x 598 km, 98.1° (Epoch: 14 December)

Event Time Altitude Azimuth Distance (km) Brightness Sun altitude
Rises 21:55:43 0° 13° (NNE) 2,852 7.1 -4.6°
Reaches altitude 10° 21:57:54 10° 14° (NNE) 1,943 6.3 -5.0°
Maximum altitude 22:02:08 85° 102° (ESE) 603 4.0 -5.7°
Drops below altitude 10° 22:06:18 10° 192° (SSW) 1,916 7.1 -6.4°
Sets 22:08:27 0° 193° (SSW) 2,808 8.0 -6.8°
